Location: Dover
(39.1580°N, 75.5250°W)
Time: 09:44:22
(UTC-04:00)

ISS - All Passes

Search period start: 27 May 2015 00:00
Search period end: 06 June 2015 00:00
Orbit: 399 x 404 km, 51.6° (Epoch: 27 May)

Date Brightness Start Highest point End Pass type
(mag) Time Alt. Az. Time Alt. Az. Time Alt. Az.
27 May - 00:48:22 10° W 00:51:18 30° NNW 00:54:14 10° NE visible
27 May - 02:27:39 10° NNW 02:28:33 11° N 02:29:24 10° N visible
27 May - 04:05:15 10° N 04:06:08 11° N 04:07:04 10° NNE visible
27 May - 05:40:26 10° NW 05:43:23 30° NNE 05:46:20 10° E daylight
27 May - 07:16:53 10° WNW 07:19:46 28° SW 07:22:37 10° SSE daylight
27 May - 22:20:03 10° SSE 22:21:51 14° SE 22:23:44 10° E night (unlit)
27 May - 23:54:47 10° WSW 23:57:58 54° NW 00:01:11 10° NE visible
28 May - 01:33:16 10° NW 01:35:00 13° NNW 01:36:40 10° NNE visible
28 May - 04:47:28 10° NNW 04:49:57 20° NNE 04:52:29 10° ENE visible
28 May - 06:23:24 10° WNW 06:26:38 61° SW 06:29:51 10° SE daylight
28 May - 23:01:30 10° SW 23:04:44 74° SE 23:07:59 10° NE night (unlit)
29 May - 00:39:07 10° WNW 00:41:28 18° NNW 00:43:48 10° NNE visible
29 May - 03:54:35 10° NNW 03:56:28 14° NNE 03:58:23 10° NE visible
29 May - 05:30:09 10° NW 05:33:24 65° NE 05:36:39 10° ESE daylight
29 May - 07:08:03 10° WSW 07:09:29 12° SW 07:10:47 10° SSW daylight
29 May - 22:08:36 10° SSW 22:11:33 34° SE 22:14:33 10° ENE night (unlit)
29 May - 23:45:11 10° W 23:48:01 27° NNW 23:50:51 10° NNE visible
30 May - 01:24:42 10° NNW 01:25:18 10° N 01:25:52 10° N visible
30 May - 03:01:47 10° N 03:02:54 11° NNE 03:04:02 10° NNE visible
30 May - 04:37:03 10° NW 04:40:04 34° NNE 04:43:07 10° E visible
30 May - 06:13:40 10° WNW 06:16:24 24° SW 06:19:05 10° S daylight
30 May - 21:16:18 10° S 21:18:27 17° SE 21:20:40 10° E visible
30 May - 22:51:30 10° WSW 22:54:37 46° NW 22:57:47 10° NE visible
31 May - 00:30:10 10° NW 00:31:42 13° NNW 00:33:12 10° NNE visible
31 May - 03:44:03 10° NNW 03:46:39 22° NNE 03:49:16 10° E visible
31 May - 05:20:03 10° WNW 05:23:15 50° SW 05:26:24 10° SSE daylight
31 May - 21:58:06 10° SW 22:01:20 88° SE 22:04:35 10° NE visible
31 May - 23:35:55 10° WNW 23:38:08 17° NNW 23:40:19 10° NNE visible
01 Jun - 02:51:06 10° NNW 02:53:08 15° NNE 02:55:12 10° ENE visible
01 Jun - 04:26:44 10° NW 04:30:01 77° NE 04:33:16 10° SE visible
01 Jun - 06:05:44 10° WSW 06:06:02 10° SW 06:06:11 10° SW daylight
01 Jun - 21:05:03 10° SSW 21:08:06 41° SE 21:11:11 10° ENE visible
01 Jun - 22:41:54 10° W 22:44:37 24° NNW 22:47:21 10° NNE visible
02 Jun - 01:58:15 10° N 01:59:33 12° NNE 02:00:53 10° NE visible
02 Jun - 03:33:34 10° NW 03:36:40 39° NNE 03:39:45 10° ESE visible
02 Jun - 05:10:23 10° W 05:12:55 20° SW 05:15:24 10° S daylight
02 Jun - 20:12:32 10° S 20:14:57 20° SE 20:17:25 10° E daylight
02 Jun - 21:48:06 10° WSW 21:51:11 39° NNW 21:54:16 10° NE visible
02 Jun - 23:26:59 10° NW 23:28:19 12° NNW 23:29:36 10° N visible
03 Jun - 02:40:30 10° NNW 02:43:13 24° NNE 02:45:58 10° E visible
03 Jun - 04:16:39 10° WNW 04:19:45 41° SW 04:22:50 10° SSE visible
03 Jun - 20:54:36 10° SW 20:57:50 78° NW 21:01:05 10° NE visible
03 Jun - 22:32:38 10° WNW 22:34:42 15° NNW 22:36:44 10° NNE visible
04 Jun - 01:47:31 10° NNW 01:49:41 17° NNE 01:51:54 10° ENE visible
04 Jun - 03:23:13 10° NW 03:26:30 89° SW 03:29:45 10° SE visible
04 Jun - 20:01:26 10° SSW 20:04:33 49° SE 20:07:43 10° ENE daylight
04 Jun - 21:38:32 10° W 21:41:08 22° NNW 21:43:45 10° NNE visible
05 Jun - 00:54:35 10° NNW 00:56:05 13° NNE 00:57:36 10° NE visible
05 Jun - 02:30:00 10° NW 02:33:09 45° NNE 02:36:18 10° ESE visible
05 Jun - 04:07:04 10° W 04:09:20 17° SW 04:11:32 10° S night (unlit)
05 Jun - 19:08:43 10° S 19:11:21 23° SE 19:14:01 10° ENE daylight
05 Jun - 20:44:38 10° W 20:47:39 34° NNW 20:50:40 10° NE daylight
05 Jun - 22:23:42 10° NNW 22:24:49 11° NNW 22:25:55 10° N visible
